TimeCDT,TemperatureF,Dew PointF,Humidity,Sea Level PressureIn,VisibilityMPH,Wind Direction,Wind SpeedMPH,Gust SpeedMPH,PrecipitationIn,Events,Conditions,WindDirDegrees,DateUTC
12:52 AM,53.1,36.0,52,29.99,10.0,East,4.6,-,N/A,,Clear,100,2012-09-26 05:52:00
1:52 AM,51.1,37.0,59,29.99,10.0,ENE,4.6,-,N/A,,Clear,70,2012-09-26 06:52:00
2:52 AM,50.0,37.0,61,30.00,10.0,NE,4.6,-,N/A,,Clear,40,2012-09-26 07:52:00
3:52 AM,46.9,37.0,68,30.00,10.0,NNE,6.9,-,N/A,,Clear,20,2012-09-26 08:52:00
4:52 AM,46.9,39.0,74,30.00,10.0,NNE,5.8,-,N/A,,Clear,30,2012-09-26 09:52:00
5:52 AM,46.9,39.0,74,30.01,10.0,NE,5.8,-,N/A,,Clear,50,2012-09-26 10:52:00
6:52 AM,48.9,39.9,71,30.01,10.0,NE,4.6,-,N/A,,Clear,50,2012-09-26 11:52:00
7:52 AM,48.0,41.0,77,30.03,10.0,East,6.9,-,N/A,,Clear,100,2012-09-26 12:52:00
8:52 AM,50.0,41.0,71,30.05,10.0,Calm,Calm,-,N/A,,Clear,0,2012-09-26 13:52:00
9:52 AM,55.0,41.0,59,30.04,10.0,SSE,3.5,-,N/A,,Clear,160,2012-09-26 14:52:00
10:52 AM,60.1,41.0,49,30.04,10.0,SSE,8.1,-,N/A,,Clear,150,2012-09-26 15:52:00
11:52 AM,64.0,41.0,43,30.04,10.0,SSE,8.1,-,N/A,,Clear,150,2012-09-26 16:52:00
12:52 PM,69.8,39.2,33,30.02,10.0,SE,10.4,-,N/A,,Clear,140,2012-09-26 17:52:00
1:52 PM,73.9,39.0,28,29.99,10.0,SE,9.2,17.3,N/A,,Clear,140,2012-09-26 18:52:00
2:52 PM,79.0,37.9,23,29.97,10.0,SE,8.1,-,N/A,,Clear,140,2012-09-26 19:52:00
3:52 PM,82.0,35.1,18,29.96,10.0,SE,6.9,-,N/A,,Clear,140,2012-09-26 20:52:00
4:52 PM,82.0,33.1,17,29.96,10.0,South,5.8,-,N/A,,Clear,190,2012-09-26 21:52:00
5:52 PM,82.0,34.0,18,29.96,10.0,West,3.5,-,N/A,,Scattered Clouds,260,2012-09-26 22:52:00
6:52 PM,78.1,37.0,23,29.97,8.0,NNE,3.5,-,N/A,,Clear,20,2012-09-26 23:52:00
7:52 PM,69.1,39.0,33,29.99,4.0,NE,4.6,-,N/A,,Haze,40,2012-09-27 00:52:00
8:52 PM,63.0,39.9,43,30.02,8.0,NNW,6.9,-,N/A,,Clear,340,2012-09-27 01:52:00
9:52 PM,62.6,39.2,42,30.02,10.0,North,8.1,-,N/A,,Clear,10,2012-09-27 02:52:00
10:52 PM,61.0,39.0,44,30.02,9.0,NNE,9.2,-,N/A,,Scattered Clouds,30,2012-09-27 03:52:00
11:52 PM,59.0,39.0,48,30.02,10.0,East,4.6,-,N/A,,Clear,90,2012-09-27 04:52:00